Location: Unspecified
(0.0000°N, 0.0000°E)
Time: 04:02:03
(UTC+00:00)

Envisat - Pass Details

Date: 21 May 2017
Orbit: 764 x 766 km, 98.2° (Epoch: 19 September)

Event Time Altitude Azimuth Distance (km) Brightness Sun altitude
Exits shadow 21:02:49 10° 330° (NNW) 2,279 5.9 -42.9°
Drops below altitude 10° 21:02:53 10° 330° (NNW) 2,304 5.9 -42.9°
Sets 21:05:14 0° 336° (NNW) 3,215 6.8 -43.4°
